Voltar ao catálogo

STARLINK-31387

AtivoComunicaçõesVLEO
NORAD 59407·PAYLOAD·🇺🇸 United States

Lançado Apr 5, 2024 de Cape Canaveral Space Force Station

Loading…

Próximas Passagens (próximas 24 horas)

TLE

AtualizadoSource: CelesTrak SupGP

Época: Sep 15, 2026, 03:04 UTC

1 59407C 24064K   26258.12826389 -.00022008  00000+0 -79695-3 0  2583
2 59407  43.0037  66.5795 0001291 274.9642 133.5175 15.27596639    18

Acompanhe STARLINK-31387 em tempo real com AllMySat

Download on the App Store